Location: Akdamlar
(36.8729°N, 30.5187°E)
Time: 20:28:14
(UTC+00:00)

CSL-04 Rocket - Pass Details

Date: 18 September 2020
Orbit: 806 x 860 km, 98.9° (Epoch: 24 October)

Event Time Altitude Azimuth Distance (km) Brightness Sun altitude
Rises 16:41:30 0° 155° (SSE) 3,342 6.5 -9.0°
Reaches altitude 10° 16:43:50 10° 152° (SSE) 2,421 5.7 -9.5°
Maximum altitude 16:49:07 62° 73° (ENE) 937 3.7 -10.5°
Drops below altitude 10° 16:54:31 10° 354° (N) 2,471 6.4 -11.6°
Sets 16:56:55 0° 351° (N) 3,417 7.1 -12.0°
